Theta_e
305 305 304 303 303 304 303 304 304 303 303 304 305 303 302 302 302 303 305 306 306 309 311 310 311 311 314 314 314 316 313 316 319 320 321 321 319 321 320 321 322 327 327 328 328
305 304 303 302 303 304 307 308 308 307 305 303 304 303 302 302 303 308 309 306 307 310 311 312 311 312 313 313 313 311 310 313 316 318 319 318 317 318 319 319 320 321 325 327 328
305 303 303 304 305 308 309 310 309 306 306 303 303 302 302 303 314 318 315 309 310 307 312 313 311 311 311 313 313 311 311 312 315 317 317 316 316 318 319 317 319 319 320 326 333
306 306 305 306 309 309 310 310 305 302 303 302 302 301 302 305 317 317 309 313 312 314 313 313 309 310 308 309 312 313 313 314 315 317 316 315 317 316 317 318 319 319 319 321 332
306 306 306 307 309 309 310 310 306 304 301 301 302 301 302 306 316 318 310 312 313 313 313 308 309 311 309 308 310 311 311 313 314 314 314 314 314 315 316 317 318 318 318 319 322
306 307 306 306 308 310 310 310 310 309 306 301 301 301 304 310 318 317 311 312 307 308 311 313 313 313 311 309 309 310 311 311 313 313 313 313 313 314 316 317 317 318 319 319 319
308 307 307 306 308 309 310 310 310 311 310 307 302 302 303 313 317 315 313 315 315 315 315 315 314 314 313 311 311 312 311 310 311 313 312 313 312 312 316 317 317 318 318 320 320
306 308 308 308 307 309 310 311 312 313 313 309 305 305 305 311 317 315 314 314 315 315 314 314 313 312 313 311 310 310 308 310 310 312 314 313 313 313 315 315 316 317 318 318 323
307 307 310 308 306 308 311 312 312 315 314 310 306 316 312 312 317 316 315 315 315 315 314 315 312 311 310 307 307 306 310 310 310 310 311 312 312 312 315 314 313 314 316 317 317
311 312 308 309 308 307 311 312 314 317 315 313 309 313 315 318 317 316 315 315 315 315 314 313 311 307 304 305 305 308 309 309 310 311 311 310 310 310 314 312 313 314 315 315 316
313 313 311 310 308 309 312 314 315 314 315 314 314 313 315 317 317 315 314 314 314 312 309 309 307 308 308 307 308 309 309 309 309 309 311 309 310 310 311 312 312 314 315 315 316
313 313 313 310 309 311 314 314 315 315 314 315 316 315 314 314 315 316 314 313 311 309 309 307 308 308 309 309 309 309 309 309 309 310 309 310 310 309 309 311 313 314 314 315 316
314 314 313 313 310 310 314 315 316 316 314 315 315 316 315 315 315 316 314 313 310 309 308 308 309 310 310 311 311 310 310 311 311 312 310 311 310 311 311 311 313 314 315 315 315
313 313 315 313 310 308 314 316 316 317 314 317 316 316 315 317 316 316 315 314 311 309 307 308 308 310 309 311 310 310 310 311 311 311 310 310 311 310 310 310 310 313 314 314 314
311 312 314 315 313 310 315 316 316 317 321 320 316 316 316 316 314 315 316 316 311 310 309 310 310 310 311 310 310 310 310 310 311 309 309 310 307 308 309 310 309 308 312 314 314
310 311 313 314 313 310 316 316 317 318 322 322 314 314 315 315 314 314 314 314 313 310 309 309 310 310 309 311 310 311 311 307 305 305 308 308 308 309 309 310 309 310 312 313 314
311 312 313 314 314 312 317 316 314 321 318 318 316 315 312 312 313 313 313 312 311 311 310 311 310 309 311 311 310 310 308 309 310 309 313 309 308 310 309 309 309 309 312 314 315
311 312 315 314 313 314 314 314 319 314 315 316 316 316 316 314 314 315 314 312 311 309 309 310 312 311 311 310 311 308 307 310 314 312 313 312 309 309 308 311 313 313 314 314 314
312 314 311 316 308 312 315 315 311 317 314 315 315 316 315 315 315 314 314 313 313 309 311 310 311 312 312 311 310 311 309 308 310 313 314 312 312 313 313 312 312 314 313 314 315
313 314 318 314 314 314 308 309 313 314 314 314 315 316 316 315 315 314 314 315 316 314 312 312 313 313 313 313 313 313 313 315 313 318 316 314 315 314 314 313 313 313 313 314 314
311 311 315 317 316 315 312 311 315 314 314 314 315 314 313 312 313 314 314 313 313 313 312 312 311 313 313 313 314 313 314 315 315 317 321 321 315 310 311 312 313 312 313 315 315
312 308 313 317 314 309 313 313 314 313 312 311 312 312 311 311 311 313 314 313 312 315 315 312 313 315 315 311 313 314 315 317 318 319 317 313 316 312 310 312 313 312 313 314 315
309 308 311 314 311 309 308 312 312 311 311 311 312 311 310 310 310 311 312 312 310 314 315 312 313 317 316 313 313 316 316 315 314 312 314 316 315 311 311 311 312 312 314 314 315
309 307 308 310 308 308 309 311 311 311 311 311 311 310 310 310 309 310 310 309 309 310 311 312 312 314 317 315 313 315 315 315 315 315 312 313 314 312 312 312 311 311 313 314 314
307 304 303 303 306 308 309 310 311 312 310 310 311 310 310 309 308 308 309 308 308 308 310 311 313 313 314 314 312 312 314 314 315 314 315 312 312 311 310 311 311 312 313 314 312
307 306 306 305 304 307 309 310 311 312 311 311 310 310 309 308 308 307 307 307 307 308 310 308 309 311 312 311 311 314 312 311 312 312 312 312 313 308 308 311 312 311 312 311 310
304 305 305 306 306 307 308 309 311 309 309 309 309 308 309 308 307 307 307 307 306 307 307 307 308 310 309 309 310 310 309 309 310 311 312 313 311 308 310 311 311 310 310 310 309
Wind_Speed
17 15 15 13 12 11 11 11 10 10 11 10 9 9 9 9 11 14 16 10 7 11 11 11 10 10 9 8 6 6 4 4 6 6 4 3 6 1 16 6 10 2 9 10 12
19 16 15 12 12 10 10 11 12 10 9 9 8 8 8 9 13 10 3 4 7 14 10 8 9 10 7 6 6 4 4 8 5 4 3 1 7 12 8 19 3 7 4 10 17
21 18 15 12 10 10 10 11 12 11 9 8 7 6 6 8 3 2 3 4 9 13 10 8 9 8 4 5 6 5 6 4 4 9 9 4 8 12 4 7 10 13 13 10 21
21 19 16 12 10 10 11 11 11 11 9 6 5 4 5 4 3 1 2 7 10 11 10 8 8 7 4 5 5 3 7 7 6 11 10 6 14 3 8 20 27 24 21 12 23
22 20 16 12 11 12 11 11 11 10 8 4 1 2 4 4 1 1 4 7 9 11 12 9 11 6 5 4 5 4 4 8 15 16 15 18 15 12 13 23 21 20 23 18 19
23 21 17 12 11 11 11 11 10 10 8 5 1 2 3 3 2 2 4 10 11 12 12 9 6 4 3 2 4 3 2 6 8 11 8 6 12 4 4 16 20 18 19 20 20
27 23 18 14 10 10 11 10 10 9 8 5 4 4 6 5 4 3 7 6 7 6 4 2 1 3 4 2 2 1 2 4 5 5 6 4 8 5 10 11 15 17 17 20 19
31 27 21 16 12 10 10 11 12 11 8 6 4 5 5 8 9 7 8 6 2 1 1 2 2 2 2 2 4 3 4 2 4 2 6 7 9 6 4 5 10 15 17 19 16
31 31 24 18 14 10 10 12 15 8 6 5 3 3 3 9 11 8 9 7 3 3 7 4 1 1 3 4 5 6 3 2 7 3 4 5 5 5 10 8 9 13 15 17 19
31 35 29 19 14 10 10 14 8 5 4 3 6 4 3 3 2 9 13 8 5 5 3 3 2 3 4 4 4 3 1 3 4 4 3 7 6 8 16 13 16 15 16 17 18
30 34 35 20 14 9 9 9 5 3 7 9 12 9 12 6 2 10 12 9 8 2 3 2 4 5 9 7 5 2 4 5 6 10 3 8 6 9 14 16 18 17 17 18 19
32 34 35 24 12 9 8 4 5 9 10 16 18 20 20 12 4 10 13 8 6 5 3 5 5 9 5 4 5 5 4 7 9 13 7 8 8 8 6 7 10 15 20 16 12
34 36 33 29 11 9 6 3 9 9 4 9 7 10 15 11 7 12 11 13 4 4 5 6 7 5 6 3 4 4 5 5 8 4 3 2 4 6 5 6 15 15 13 15 19
33 34 32 29 9 6 4 5 9 5 3 4 3 4 11 7 5 21 19 10 2 8 8 5 6 6 4 5 6 4 8 7 5 1 5 4 10 4 5 6 6 15 19 26 25
35 33 30 26 14 7 5 4 8 2 4 2 2 4 13 9 2 5 21 18 8 5 6 8 3 3 4 9 6 9 5 6 5 4 2 3 1 7 3 5 10 8 17 18 23
40 34 28 24 16 7 6 5 1 4 5 1 5 5 5 5 2 2 5 8 5 6 3 9 2 6 7 2 7 3 1 5 4 3 3 7 6 5 5 8 6 5 19 28 25
38 27 19 19 6 7 3 0 4 3 5 6 4 1 3 4 3 3 2 3 5 1 5 3 10 5 4 5 5 4 5 4 4 3 10 8 6 11 6 9 8 10 24 29 29
36 18 11 7 5 9 2 4 3 3 2 3 3 6 2 1 0 2 3 2 5 4 2 5 10 6 4 9 12 7 8 5 6 4 8 3 6 6 7 8 12 13 18 20 23
30 13 5 1 7 7 4 2 5 2 3 4 6 2 1 2 3 4 1 3 3 4 5 3 6 4 5 6 10 3 4 4 2 2 2 5 6 6 5 4 6 10 14 8 11
26 10 17 6 8 4 4 4 2 1 4 2 1 4 3 5 4 3 1 1 4 1 2 3 4 5 6 2 0 3 5 1 1 4 6 4 3 5 6 4 5 8 13 15 14
16 6 13 4 2 1 2 4 3 3 7 1 3 5 5 4 3 3 4 3 4 4 4 1 2 6 1 4 5 1 2 4 3 2 4 8 5 5 3 3 6 8 14 14 16
10 3 15 0 3 3 1 5 8 6 11 5 4 4 3 7 5 3 3 4 11 5 3 5 4 5 11 4 3 1 3 4 4 4 4 2 10 3 4 4 7 14 19 19 17
7 6 13 4 2 3 6 5 5 7 5 5 4 6 5 3 4 3 2 10 9 5 2 4 1 2 6 1 1 3 2 3 4 3 6 5 7 2 7 7 18 17 21 17 18
7 4 7 11 7 3 5 5 7 14 3 7 6 2 5 3 3 7 10 5 2 6 12 4 2 4 6 3 2 6 5 7 6 3 4 7 16 13 14 12 15 22 15 14 11
8 2 3 4 3 2 2 2 4 5 9 5 2 2 3 4 8 10 11 6 12 20 11 6 6 8 13 16 13 13 13 10 8 9 8 13 9 14 6 9 9 10 12 12 13
5 5 6 7 9 3 2 2 4 8 3 5 4 7 7 6 12 15 11 8 9 5 4 3 4 3 7 11 10 13 10 9 13 13 10 11 14 2 8 12 17 17 16 7 14
8 5 2 5 4 2 3 3 3 11 9 14 8 12 11 12 12 23 24 22 13 5 6 4 4 2 4 1 4 5 6 6 4 3 3 4 5 3 5 6 13 19 17 9 16
Wind_Direction
343 336 331 330 326 330 326 323 320 315 309 301 295 282 269 277 280 275 272 259 235 208 179 175 186 187 183 178 163 144 80 194 214 167 235 345 16 309 331 319 328 255 266 217 228
352 345 336 334 334 338 341 335 326 318 314 309 294 278 277 293 294 286 266 232 201 185 180 166 164 168 161 166 169 118 143 213 217 203 260 306 310 319 337 323 302 8 320 235 209
1 358 350 343 348 345 343 340 332 322 317 309 299 288 290 315 312 56 4 188 174 182 182 169 159 161 132 148 177 162 184 211 250 248 275 285 289 292 258 293 281 313 325 234 200
5 2 359 354 354 353 349 347 347 338 325 324 318 286 302 315 132 350 3 174 187 189 191 184 169 148 128 170 183 143 234 209 268 258 279 271 286 281 253 272 291 294 289 278 221
2 360 358 354 348 348 350 353 357 360 348 336 306 275 315 285 328 0 29 170 181 183 188 174 160 145 161 191 164 181 239 239 259 273 272 276 267 258 263 285 297 290 282 258 238
359 355 352 347 342 340 343 347 354 359 2 349 293 264 303 286 128 111 126 101 123 135 140 153 164 178 179 199 171 220 240 283 286 272 257 239 265 253 306 300 295 300 288 275 253
360 350 347 340 337 335 331 335 339 340 345 339 309 287 259 200 169 156 155 135 118 114 142 172 159 160 153 136 194 274 321 332 248 249 243 246 293 202 282 284 287 294 296 285 261
2 356 344 338 330 329 323 324 325 318 317 316 304 304 256 186 185 168 172 189 189 203 207 332 212 225 171 142 32 75 44 360 280 224 251 166 273 286 311 321 298 292 287 292 280
10 6 352 335 326 323 319 321 319 301 287 296 273 297 257 200 215 199 194 175 142 327 282 257 319 138 68 78 15 8 229 226 309 250 271 175 278 262 321 336 303 304 293 286 287
9 9 358 338 325 315 315 325 325 305 252 284 252 295 217 153 284 211 193 203 247 306 151 193 134 79 45 77 220 224 260 259 252 274 199 288 251 286 303 315 306 305 301 299 293
2 1 1 344 322 311 311 337 343 295 245 242 273 260 291 294 235 203 206 223 227 239 155 44 86 207 218 198 178 191 207 242 255 260 229 253 253 264 285 306 305 305 310 311 311
354 352 355 348 318 299 306 356 340 307 297 283 259 254 254 260 303 206 210 190 163 203 102 28 236 230 195 185 207 215 247 261 276 261 168 260 258 253 244 248 253 293 304 313 321
346 348 347 350 320 282 276 328 338 335 270 292 247 232 235 230 226 233 203 202 163 162 180 170 235 116 176 233 201 209 189 237 226 307 264 326 293 250 255 259 282 284 277 288 301
341 343 343 348 333 262 239 308 330 320 8 267 245 216 173 160 248 232 210 188 174 205 154 226 258 204 185 225 166 251 220 242 253 168 242 125 282 238 240 255 269 273 288 296 299
330 333 333 339 315 266 217 300 316 310 343 167 169 157 170 174 319 201 209 205 198 181 124 240 199 162 188 223 144 244 219 232 253 232 57 282 291 277 229 273 269 254 272 292 299
321 322 319 330 316 244 226 310 211 41 257 328 132 162 135 225 268 94 156 195 231 173 229 241 245 183 213 257 172 225 185 45 52 89 238 231 209 191 223 240 275 268 277 290 298
324 319 306 312 291 184 221 81 49 164 316 354 5 357 211 208 215 195 182 179 196 140 247 299 251 244 178 291 283 127 81 311 312 300 264 222 238 252 234 247 227 269 300 303 299
333 327 302 293 215 199 220 62 183 266 338 3 326 302 257 58 293 133 141 266 243 200 163 199 278 178 188 194 228 185 160 181 245 242 273 29 242 247 217 250 308 321 316 311 297
347 358 17 105 167 171 171 101 213 210 306 320 309 260 305 78 45 28 290 246 271 164 179 196 265 257 224 195 150 193 177 199 175 44 340 225 295 305 279 12 354 345 8 328 334
354 34 23 82 131 154 85 234 246 277 312 342 241 46 26 1 3 359 183 276 28 354 160 252 279 253 280 151 12 171 149 121 17 294 264 239 264 242 267 255 315 342 343 352 341
8 60 21 127 135 340 169 237 289 28 4 330 28 26 36 22 338 283 259 92 10 326 291 200 63 290 225 223 220 166 178 67 96 167 261 289 253 219 249 234 285 301 319 315 320
11 57 6 165 31 24 20 325 318 359 22 34 81 81 49 8 312 276 309 24 17 350 347 347 159 226 258 323 304 87 131 150 164 213 231 240 264 309 282 251 270 303 314 317 313
12 344 21 43 50 11 323 322 349 7 37 9 98 3 58 233 270 271 291 310 23 337 345 59 214 284 306 202 66 83 110 110 96 123 216 235 274 322 303 303 303 303 303 322 321
5 14 6 50 57 61 11 336 344 352 60 7 344 343 356 286 284 272 274 277 319 325 318 117 290 216 242 265 223 272 225 206 173 206 249 233 281 293 291 304 295 287 293 320 341
21 55 30 333 16 18 106 250 296 308 337 29 303 222 320 279 298 258 269 296 308 290 267 140 230 225 237 248 263 257 254 246 208 231 234 276 266 280 323 314 320 333 329 333 355
30 5 355 305 309 306 182 253 271 269 284 282 221 315 286 248 252 278 286 275 250 253 188 172 239 220 264 256 258 256 253 255 255 255 248 263 274 99 305 351 340 322 336 339 348
42 20 352 313 328 280 219 237 297 335 274 263 327 322 295 271 306 288 270 256 244 221 195 177 167 148 257 337 320 273 239 223 232 209 180 225 238 290 306 311 295 308 318 302 329